Orbital Elements at Epoch 2459000.5 (2020-May-31.0) TDB
Reference: JPL 19 (heliocentric ecliptic J2000)
Element | Value | Uncertainty (1-sigma) | Units |
e | .03141114583495359 | 4.2678e-08 | |
a | 2.72402826538094 | 2.0373e-08 | au |
q | 2.638463416278523 | 1.1722e-07 | au |
i | 1.945609516181649 | 5.4202e-06 | deg |
node | 12.84745438883239 | 0.00014095 | deg |
peri | 89.73789176265026 | 0.00016703 | deg |
M | 303.9457567592621 | 8.9342e-05 | deg |
tp | 2459256.194763700132 (2021-Feb-10.69476370) | 0.0004079 | TDB |
period | 1642.161406705947 4.50 | 1.8423e-05 5.044e-08 | d yr |
n | .219223273991156 | 2.4594e-09 | deg/d |
Q | 2.809593114483356 | 2.1013e-08 | au |
|
| | Orbit Determination Parameters
Additional Information
|